Regional Weather Roundup
Issued by NWS

Home | Current Version | Previous Version | Graphics & Text | Print | Product List | Glossary On
Versions: 1 2 3 4 5 6 7 8 9 10 11 12 13 14 15 16 17 18 19 20 21 22 23 24 25 26 27 28 29 30 31 32 33 34 35 36 37 38 39 40 41 42 43 44 45 46 47 48 49 50
000
ASUS43 KMPX 240510
RWRMN
WEATHER ROUNDUP FOR MINNESOTA
NATIONAL WEATHER SERVICE TWIN CITIES/CHANHASSEN MN
1100 PM CST FRI FEB 23 2018


NOTE: "FAIR" INDICATES FEW OR NO CLOUDS BELOW 12,000 FEET WITH NO
SIGNIFICANT WEATHER AND/OR OBSTRUCTIONS TO VISIBILITY. N/A MEANS
CURRENT SKY AND/OR WEATHER CONDITIONS ARE NOT AVAILABLE.

MNZ060>063-068>070-240600-
   Twin Cities Metro

CITY           SKY/WX    TMP DP  RH WIND       PRES   REMARKS
TWIN CITIES    FAIR      17  14  88 W5        30.29F WCI  10
ST PAUL        FAIR      19  16  88 W5        30.30F WCI  12
CRYSTAL        FAIR      15  12  88 NW7       30.28F WCI   5
BLAINE         FAIR      18  14  86 NW7       30.28F WCI   8
LAKEVILLE      FAIR      10  10 100 CALM      30.28S
EDEN PRAIRIE   FAIR      17  12  80 NW3       30.27F
SOUTH ST PAUL  FAIR      17  15  91 CALM      30.29F
LAKE ELMO      FOG       14  12  92 CALM      30.28F VSB 1/4
$$
MNZ001>005-007-008-013>017-022>024-027-028-240600-
   Northwest Minnesota

CITY           SKY/WX    TMP DP  RH WIND       PRES   REMARKS
BEMIDJI        FAIR       5   1  85 SW3       30.20F
HALLOCK        FAIR       3   0  85 S12       30.17F WCI -13
ROSEAU         FAIR       1  -2  85 S6        30.16F WCI -10
WARROAD        FAIR       5   1  85 SW8       30.16F WCI  -8
THIEF RVR FALL FAIR       3   0  87 SW13      30.21S WCI -14
CROOKSTON      FAIR       1  -2  85 S8        30.24F WCI -12
FOSSTON        FAIR      -6  -8  92 S6        30.23S WCI -18
DETROIT LAKES  FAIR       5   3  92 S5        30.24F WCI  -4
MOORHEAD       FAIR       0  -6  78 S5        30.27F WCI -10
PARK RAPIDS    FAIR      -1  -5  82 W8        30.21F WCI -15
MAHNOMEN       FAIR      -1  -4  86 S9        30.23F WCI -16
$$
MNZ006-009>011-018-025>026-240600-
   North Central Minnesota

CITY           SKY/WX    TMP DP  RH WIND       PRES   REMARKS
BAUDETTE       FAIR       4   1  88 S6        30.16S WCI  -7
FLAG ISLAND    FAIR       5   1  85 S5        30.15S WCI  -4
INTL FALLS     FAIR       9   4  80 W7        30.17S WCI  -2
WASKISH        FAIR       7   3  85 SW9       30.19S WCI  -7
LONGVILLE      FAIR      10   3  72 SW3       30.23S
GRAND RAPIDS   FAIR       4  -1  80 CALM      30.22S
CRANE LAKE     FAIR      12   7  79 CALM      30.20S
ORR            FAIR       9   3  78 NW3       30.15S
COOK             N/A      7   3  85 W5        30.18S WCI  -2
WALKER         FAIR       9   3  78 SW7       30.22S WCI  -3
$$
MNZ012-019>021-037-240600-
   Northeast Minnesota

CITY           SKY/WX    TMP DP  RH WIND       PRES   REMARKS
DULUTH         FAIR      20  15  81 W9        30.18R WCI   9
ELY            FAIR      16   7  67 SW5       30.16S WCI   9
HIBBING        FAIR      12   7  80 SW3       30.18S
EVELETH        FAIR      10   9  92 W3        30.19S
DULUTH HARBOR  FAIR      28  21  74 SW9       30.24R WCI  20
TWO HARBORS    FAIR      25  19  80 W8        30.17S WCI  16
SILVER BAY     FAIR      25  21  86 CALM      30.16F
GRAND MARAIS     N/A     27  20  75 W3        30.18S
G MARAIS ARPRT CLOUDY    19  14  79 W3        30.11F
$$
MNZ029>031-032-039>041-046>048-054>057-064-240600-
   West Central Minnesota

CITY           SKY/WX    TMP DP  RH WIND       PRES   REMARKS
FERGUS FALLS   FAIR     N/A N/A N/A SE5       30.28F
WHEATON        CLOUDY    -8 -13  77 CALM      30.30F
MORRIS         FOG       -8 -11  84 CALM      30.27F VSB<1/4
ALEXANDRIA     FAIR       3   0  87 W3        30.25F
ELBOW LAKE     FAIR      -6  -9  85 CALM      30.27F
WADENA         FAIR       1   0  92 W5        30.24F WCI  -8
GLENWOOD       FAIR       7   3  85 W3        30.26F
APPLETON       CLOUDY    -6  -9  84 CALM      30.29F FOG
BENSON         CLOUDY    -8 -11  84 CALM      30.28F
ORTONVILLE       N/A      0  -6  78 CALM      30.27F HAZE
MADISON        FOG        0  -4  85 CALM      30.28F VSB 1/2
WILLMAR        FAIR       0  -6  78 CALM      30.30F
$$
MNZ033>034-036-042>043-049>051-058-059-240600-
   Central Minnesota

CITY           SKY/WX    TMP DP  RH WIND       PRES   REMARKS
ST CLOUD       FAIR      10   7  87 NW5       30.27F WCI   2
SAUK CENTRE    FAIR       3   1  91 CALM      30.27F
PAYNESVILLE    FAIR       5   4  94 SW3       30.28F
AITKIN         FAIR      12   9  85 W3        30.23S
PINE RIVER     FAIR       7   3  85 CALM      30.26F FOG
BRAINERD       FAIR       9   2  73 W3        30.25S
STAPLES        FAIR       0  -4  85 W5        30.24F WCI -10
LONG PRAIRIE   FAIR       0  -4  85 CALM      30.26F FOG
LITTLE FALLS   FAIR       5   0  78 CALM      30.28F
LITCHFIELD     FAIR      10   9  92 CALM      30.28F
BUFFALO        FAIR      12  10  90 W5        30.30F WCI   5
MAPLE LAKE     FAIR      10   9  94 CALM      30.29F
HUTCHINSON     FAIR       8   5  90 NW7       30.28F WCI  -4
$$
MNZ037-044-045-052-053-240600-
   East Central Minnesota

CITY           SKY/WX    TMP DP  RH WIND       PRES   REMARKS
PRINCETON      FAIR      10   7  85 CALM      30.27F
CAMBRIDGE      FAIR      18  10  73 W3        30.28F
RUSH CITY      FAIR      16  13  87 W5        30.27F WCI   9
MOOSE LAKE     FAIR      21  14  73 W5        30.22R WCI  15
HINCKLEY       FAIR      14  14 100 CALM      30.25S
CLOQUET        FAIR      21  16  79 W6        30.20R WCI  14
MCGREGOR       FAIR      19  10  68 CALM      30.24R
$$
MNZ071>073-080-081-089-090-097-098-240600-
   Southwest Minnesota

CITY           SKY/WX    TMP DP  RH WIND       PRES   REMARKS
MONTEVIDEO     CLOUDY     7   1  78 CALM      30.29F FOG
GRANITE FALLS  HAZE      -5 -10  81 W5        30.30F VSB 1/4 WCI -16
CANBY          CLOUDY     9   7  92 CALM      30.28F
MARSHALL       SNOW       7   5  91 NW7       30.27F VSB 1/4 WCI  -5
REDWOOD FALLS  CLOUDY    12  10  92 NW8       30.27F FOG     WCI   0
OLIVIA         FOG        3   0  85 NW6       30.28F VSB 1/4 WCI  -8
PIPESTONE      SNOW      12  10  92 N6        30.21F VSB 1/4 WCI   3
WORTHINGTON    SNOW      15  13  91 N6        30.25R VSB 1/4 WCI   6
JACKSON        FOG       18  14  86 N3        30.26R VSB 1/4
TRACY          CLOUDY    12  11  94 CALM      30.25F FOG
SLAYTON        FOG       16  14  95 CALM      30.23F VSB 1/4
$$
MNZ065>067-074>077-082>085-091>093-240600-
   South Central Minnesota

CITY           SKY/WX    TMP DP  RH WIND       PRES   REMARKS
MANKATO        FOG       12  10  92 N5        30.28F VSB 1/4 WCI   4
NEW ULM          N/A      5   1  85 NW3       30.27F FOG
ST JAMES       FOG        5   3  92 CALM      30.28F VSB 1/4
FAIRMONT       FOG        7   3  85 CALM      30.29S VSB 1
GLENCOE        FAIR      12  10  92 NW5       30.27F WCI   4
FARIBAULT      FAIR      12  12 100 CALM      30.28F FOG
OWATONNA       FOG        7   1  78 CALM      30.26F VSB<1/4
WASECA         FOG        5   1  85 CALM      30.28F VSB<1/4
ALBERT LEA     FAIR      16  16 100 CALM      30.26R FOG
$$
MNZ078>079-086>088-094>096-240600-
   Southeast Minnesota

CITY           SKY/WX    TMP DP  RH WIND       PRES   REMARKS
ROCHESTER      FAIR      13  12  96 NW10      30.24F FOG     WCI   0
RED WING       FAIR      16  12  86 CALM      30.28F FOG
STANTON        FOG       11   8  86 CALM      30.27F VSB 3/4
DODGE CENTER   FAIR      14  12  92 N6        30.25S FOG     WCI   5
WINONA         FAIR      18  14  86 CALM      30.28F FOG
AUSTIN         FAIR      12  10  92 CALM      30.25S FOG
PRESTON        FAIR      16  14  90 N9        30.24F FOG     WCI   5
$$
ABBREVIATIONS USED IN REMARKS
   TC - TEMPERATURES IN CELSIUS
  WCI - WIND CHILL INDEX
   HX - HEAT INDEX
  VSB - VISIBILITY
$$




USA.gov is the U.S. government's official web portal to all federal, state and local government web resources and services.